ECMWFFLT1_sfc_dewp_066.txt.gz
Dewpoint
-5 -5 -5 -6 -6 -6 -5 -5 -4 -4 -3 -2 -2 -2 -1 -1 0 1 1 2 2 4 8 8 8 9 9 7 8 7 8 7 6 7 6 6 6 3 5 5 4 3 3 2 1 -0 -0 1 1 0 3 5 8 10 12 12 12 13 13 13 13 14 19
-6 -6 -6 -6 -7 -7 -7 -5 -4 -3 -2 -1 -1 -2 -1 -1 -0 -0 1 2 3 4 7 8 8 8 9 9 8 8 8 8 6 8 5 4 6 3 5 6 5 3 3 3 0 -2 -3 -3 -1 -1 2 2 4 5 10 9 10 11 13 13 12 13 16
-5 -5 -6 -6 -6 -6 -6 -5 -4 -2 -0 -0 -0 -1 -1 -1 -1 -0 1 3 3 4 8 8 9 9 9 8 8 8 8 8 8 8 7 7 6 6 5 3 6 4 4 4 2 1 -1 -2 -2 -1 -1 0 0 3 5 8 11 11 13 13 13 14 15
-5 -5 -6 -5 -5 -5 -6 -4 -3 -1 -1 1 -0 2 1 -0 -0 2 5 4 7 8 8 9 9 9 9 9 8 8 7 7 8 7 7 7 7 7 6 3 2 2 4 4 3 1 0 -2 -4 -3 -3 -2 -1 0 3 8 10 12 12 15 16 13 12
-4 -5 -5 -5 -4 -4 -5 -4 -3 -3 -2 -1 -1 -0 2 3 4 4 4 5 7 10 10 9 9 10 10 9 9 9 7 8 8 8 7 7 7 6 6 5 6 3 5 4 3 2 1 -0 -1 -2 -1 0 1 2 7 10 11 12 13 15 15 15 14
-3 -3 -4 -5 -5 -5 -5 -5 -4 -3 -3 -2 -1 -1 1 3 4 3 5 5 5 8 10 10 10 10 10 10 10 9 9 9 8 8 8 8 7 7 7 7 6 6 5 4 3 2 1 1 -0 -2 -2 -2 -1 0 5 8 10 12 14 15 14 14 15
-2 -2 -3 -3 -3 -3 -3 -3 -2 -2 -2 -1 -1 3 3 3 3 2 5 6 6 8 8 9 10 10 10 10 10 10 10 10 9 9 8 8 8 8 8 7 7 7 6 5 5 5 2 1 2 -0 -2 -2 -1 -1 1 2 5 6 10 13 13 13 13
1 -2 -2 -2 -3 -2 -3 1 -0 -2 -1 3 2 3 3 2 3 4 5 6 7 8 9 10 10 10 11 11 11 11 10 10 9 9 8 9 8 8 8 7 7 7 6 6 6 5 3 3 1 1 0 -1 -1 2 2 1 3 4 5 7 11 14 13
3 2 2 -2 -2 -0 2 2 2 2 2 2 3 3 2 3 4 4 5 6 6 8 9 10 10 11 11 12 13 13 13 12 12 9 8 9 9 9 8 8 8 8 7 6 6 5 6 4 3 2 2 1 0 1 2 0 5 5 5 7 9 10 13
3 4 3 1 2 2 2 2 2 4 9 8 3 3 3 4 4 4 5 5 6 7 8 9 10 10 12 12 13 14 14 15 15 14 11 9 9 9 9 8 8 7 7 7 6 5 6 5 5 3 3 2 2 1 1 2 1 1 3 7 7 8 9
4 4 3 3 3 2 2 2 3 9 12 12 13 7 4 3 4 4 4 5 6 6 7 8 9 9 11 12 13 13 15 16 16 17 17 15 14 13 10 9 8 8 8 7 7 7 7 6 6 6 5 4 4 4 3 2 2 2 5 5 5 5 9
4 4 4 3 3 3 2 2 8 12 12 13 14 14 8 6 5 4 4 4 5 5 6 6 7 9 9 10 11 11 12 15 17 18 18 18 18 17 17 16 11 9 9 9 8 7 8 8 7 7 8 8 8 6 5 6 6 6 6 7 5 4 6
4 4 3 3 3 3 3 3 8 12 13 14 15 15 13 10 7 6 6 6 5 5 6 6 7 8 9 10 13 12 11 11 13 16 18 19 19 19 20 20 19 17 12 10 10 9 9 9 9 9 9 10 9 10 9 8 7 8 7 7 5 4 4
4 4 4 4 4 3 3 3 6 11 13 14 15 16 15 11 11 8 8 7 7 7 7 7 7 8 9 11 12 12 13 13 13 13 14 15 16 17 18 20 21 21 19 15 12 11 10 12 11 10 11 12 12 11 10 9 8 10 9 8 8 9 8
4 4 4 4 3 2 2 2 8 11 12 14 15 15 15 11 11 11 10 9 9 9 9 9 9 9 10 11 13 13 14 14 14 15 14 14 15 16 17 18 18 19 20 18 16 14 14 14 15 13 13 14 14 12 12 12 11 12 12 12 13 13 14
4 3 3 3 3 2 1 1 10 11 13 14 15 15 10 9 10 10 10 10 11 11 11 11 11 11 12 13 14 16 19 18 16 16 15 15 15 16 17 17 20 21 22 21 19 17 15 15 16 17 15 14 14 14 13 12 13 13 13 12 11 9 9
3 2 2 2 1 1 0 -0 6 11 13 14 15 14 9 9 9 9 10 10 10 11 11 12 13 13 13 15 16 18 20 22 22 17 16 16 16 16 16 16 18 22 24 24 24 24 23 22 21 22 22 21 20 16 14 12 11 11 12 11 10 10 10
1 1 2 1 1 0 -0 -0 3 9 11 13 14 13 9 8 8 8 8 9 10 11 11 12 15 15 14 15 15 18 21 22 21 20 18 17 16 16 16 16 17 17 19 23 24 24 23 24 24 23 22 23 23 22 19 13 11 12 12 12 11 9 9
1 1 0 0 0 2 1 -0 2 8 11 12 13 11 9 8 7 7 8 9 9 10 11 12 15 16 16 16 17 21 22 22 22 21 20 19 17 16 16 16 17 17 17 17 18 19 21 22 22 23 23 22 22 23 22 18 15 14 13 11 11 10 10
1 0 -0 0 -0 -1 0 -0 -0 1 9 11 13 15 9 8 7 7 8 9 9 9 11 12 14 15 19 20 21 21 22 22 22 21 22 20 18 17 17 18 18 18 17 17 17 17 18 19 21 21 22 23 23 22 22 21 18 16 14 13 12 12 11
0 -0 -1 -1 -1 -1 -1 -1 -1 -0 8 10 12 14 14 9 8 8 7 7 8 9 10 12 13 14 17 19 21 22 22 21 21 21 21 21 20 19 20 20 19 19 21 19 18 17 17 17 18 19 20 20 21 22 22 22 22 19 17 15 14 13 12
-1 -2 -2 -2 -2 -2 -2 -1 -1 -2 4 10 12 14 15 10 9 9 8 8 8 10 11 12 13 15 18 20 20 21 20 20 20 20 20 20 21 22 24 22 21 20 19 19 18 17 17 16 16 16 17 18 18 19 20 22 22 22 20 18 17 15 14
-2 -3 -4 -4 -4 -3 -3 -2 -3 2 0 6 11 13 15 15 13 14 11 9 9 11 11 13 16 16 19 19 20 20 19 19 20 20 19 21 21 21 21 23 22 21 21 19 19 18 16 16 16 16 16 17 17 17 19 19 21 22 23 21 20 19 19
-4 -5 -5 -6 -6 -6 -6 -4 -4 0 3 3 9 12 15 16 16 16 12 11 10 11 12 14 15 16 18 19 19 19 19 19 19 18 19 20 20 20 23 21 19 19 19 20 19 18 17 17 17 16 16 17 17 17 19 19 21 21 23 23 21 21 21
-6 -6 -7 -7 -8 -8 -7 -6 -5 -4 -1 5 7 12 14 15 16 16 15 12 12 14 14 15 16 16 17 18 18 19 19 19 19 19 20 20 20 22 19 18 17 17 17 16 16 17 18 17 17 17 17 18 19 19 19 19 19 21 21 22 23 23 21
-6 -7 -8 -8 -8 -8 -7 -5 -4 -2 -0 5 8 9 13 15 15 15 16 16 15 17 17 16 16 16 17 17 17 16 16 16 16 18 19 20 21 18 17 16 15 15 15 15 14 14 15 17 18 18 19 20 20 18 17 17 17 17 17 18 19 19 20
-7 -8 -8 -8 -8 -7 -6 -5 -4 -2 0 2 3 6 9 11 13 16 16 15 14 15 14 13 14 14 16 16 17 17 18 18 17 16 17 17 16 15 15 15 14 14 14 14 13 13 14 16 17 19 20 19 17 17 17 17 16 16 15 16 16 16 16
-7 -8 -8 -8 -8 -7 -6 -5 -3 -1 1 3 5 6 8 9 9 9 8 9 10 11 12 12 15 15 14 14 14 14 13 13 13 13 13 13 13 13 13 14 16 18 15 14 13 14 15 16 16 17 18 18 17 17 17 17 16 16 15 16 15 15 14
-7 -7 -6 -7 -7 -6 -5 -3 -2 1 7 6 10 8 8 7 7 7 7 9 11 10 10 10 10 9 9 10 10 11 11 12 12 12 12 12 12 11 11 11 11 11 12 12 13 12 12 13 13 15 17 18 17 17 17 18 17 17 16 16 15 14 13
-6 -6 -6 -6 -5 -4 -4 -2 0 7 11 12 13 13 12 11 9 9 8 10 12 11 8 8 8 8 8 9 9 10 10 10 11 10 9 9 12 9 9 9 10 11 11 11 11 12 12 12 12 13 14 16 17 17 17 18 19 17 17 15 14 14 13
10 8 3 -3 -5 -2 4 6 8 11 12 13 13 13 13 12 11 11 12 11 10 10 9 8 8 8 9 9 10 10 9 8 8 8 8 7 7 7 7 8 8 8 8 9 9 10 10 11 11 11 12 13 15 17 18 17 18 18 17 16 15 14 14
10 11 10 8 3 1 -2 5 9 11 13 12 12 12 11 12 12 12 13 14 14 11 10 9 7 7 7 7 7 7 5 5 5 4 3 3 4 5 5 5 5 4 5 7 7 8 8 9 9 10 11 12 13 14 16 18 18 18 17 17 16 16 16
10 10 11 11 12 12 8 5 7 11 13 14 11 10 10 12 12 13 13 13 10 8 7 6 6 6 5 5 5 4 3 2 1 -0 -1 -1 -0 -0 -1 -2 -2 -1 2 5 5 5 6 6 7 8 9 10 11 12 13 15 18 18 18 18 17 17 17
10 10 10 10 12 13 13 13 11 11 11 10 9 11 12 12 11 13 13 9 4 4 4 4 5 4 4 3 1 1 -0 -1 -1 -2 -4 -4 -5 -5 -5 -5 -4 -1 3 3 3 3 4 5 5 6 6 7 9 10 11 12 14 16 18 17 17 17 17
1 7 10 8 10 12 13 13 12 11 9 9 11 13 12 10 3 2 2 1 0 1 2 2 2 2 1 0 -1 -2 -2 -3 -2 -2 -5 -5 -6 -7 -7 -6 -2 0 0 0 -1 1 2 2 3 3 4 5 6 7 8 10 11 12 14 15 17 17 17
-1 -3 4 10 11 11 11 14 12 9 8 11 12 10 7 1 -0 -0 -2 -1 -2 -3 -3 -3 -3 -1 -1 -1 -1 -2 -4 -4 -3 -3 -4 -6 -8 -8 -8 -6 -2 -2 -3 -4 -2 -0 -1 -0 0 1 2 3 4 6 7 8 9 10 11 12 13 14 15

ECMWFFLT1_sfc_dewp_069.txt.gz
Dewpoint
-5 -5 -4 -3 -2 -3 -2 -2 -1 -2 -2 -1 -1 -0 -0 -0 0 1 1 2 3 4 8 9 8 9 9 7 9 7 8 7 7 8 6 7 5 5 7 7 6 5 5 3 2 1 0 0 0 -0 1 1 5 7 11 12 10 11 13 14 16 17 19
-4 -3 -3 -3 -3 -3 -2 -1 -2 -2 -2 -1 -1 -1 -1 0 2 1 1 2 2 4 7 9 9 10 10 10 10 10 9 8 7 8 6 5 7 4 7 5 6 5 5 5 3 2 1 -0 -1 -3 -1 -1 1 3 7 7 8 9 11 13 15 15 17
-1 -0 -1 -1 -1 -2 -1 -1 -1 -1 1 1 1 -1 -1 0 1 1 2 3 3 4 8 9 9 10 10 10 11 11 10 10 11 11 10 9 8 7 7 5 7 6 6 6 4 3 1 0 -1 -2 -2 -1 -0 2 3 5 9 10 13 15 13 13 16
-0 1 0 1 0 1 -1 -0 1 1 1 2 1 1 3 2 2 2 5 5 7 7 8 8 9 10 10 11 11 11 10 10 10 10 9 10 9 9 8 5 4 4 6 6 5 3 2 1 -0 -1 -1 -2 -2 -1 2 2 7 11 12 13 14 13 16
1 1 2 1 2 1 0 1 0 1 1 1 1 2 5 7 7 7 6 7 6 8 8 9 9 9 10 11 10 10 9 10 10 10 10 9 9 8 8 7 7 5 6 6 5 4 2 2 0 -0 -1 -1 -1 -0 5 8 11 11 12 13 15 16 17
2 2 2 2 2 2 1 1 1 1 1 1 1 1 4 7 7 6 7 7 7 7 9 10 10 10 12 11 11 10 10 11 10 10 10 10 9 9 9 8 8 7 7 6 5 4 3 3 2 1 0 -0 -0 -1 1 4 7 10 14 14 15 16 17
3 3 3 3 4 4 3 3 3 3 2 2 2 6 8 6 6 6 6 7 6 7 8 10 11 12 12 12 12 11 11 11 11 11 11 10 10 10 10 9 8 8 7 7 6 6 4 3 4 2 2 1 0 -1 -1 0 4 5 8 10 11 12 15
4 5 4 5 5 5 6 7 5 3 3 6 6 7 8 6 7 6 6 6 7 7 8 9 11 12 13 13 13 13 12 12 10 10 10 10 10 10 10 9 9 8 8 7 7 6 6 6 4 3 3 3 2 2 1 -0 2 3 4 6 10 13 13
7 7 8 8 7 7 7 7 6 6 6 7 8 9 7 6 6 6 6 6 6 7 8 9 10 12 13 13 14 14 14 13 13 11 9 10 11 10 9 9 9 9 8 7 7 7 7 5 5 5 4 3 5 3 1 -0 1 5 5 6 7 9 14
8 9 9 7 8 8 7 7 6 7 11 11 7 8 7 6 6 6 6 6 6 7 8 8 10 10 12 13 13 14 14 15 15 15 12 10 10 10 10 9 8 8 8 8 7 7 7 6 6 5 4 4 3 3 3 3 1 1 3 4 6 7 11
9 9 9 9 9 9 8 7 7 11 14 15 15 10 8 7 6 6 6 6 6 6 6 8 9 10 11 12 13 13 14 15 16 17 16 15 14 13 10 9 9 9 9 8 8 8 8 7 7 7 6 5 5 4 4 4 4 3 5 5 5 4 9
10 9 9 9 9 9 8 7 10 14 15 16 16 15 8 7 6 5 5 6 6 5 6 7 7 9 10 11 12 12 13 14 16 17 17 17 16 16 16 15 10 9 9 9 9 8 8 9 8 8 9 9 9 7 7 8 8 8 6 6 6 6 7
9 9 9 9 9 8 8 8 12 15 16 16 17 17 14 6 6 5 4 5 5 6 6 6 7 8 10 10 12 12 11 12 13 16 17 17 17 17 17 17 17 15 12 11 10 9 9 9 10 10 10 11 10 11 10 9 9 9 8 8 6 5 6
9 9 9 9 8 8 8 7 10 15 16 16 17 17 16 11 7 6 6 6 6 6 6 6 6 7 8 9 10 10 11 11 11 13 14 15 15 15 16 18 19 18 17 15 12 11 10 12 12 11 12 14 14 12 10 10 10 11 10 9 9 9 10
8 8 9 8 8 7 7 7 12 15 15 16 17 16 15 13 12 9 8 8 7 7 7 7 6 6 6 8 9 10 11 11 11 11 12 14 15 15 16 16 16 17 18 17 16 14 13 14 15 14 15 15 16 14 14 13 13 13 13 14 15 14 15
8 8 8 8 8 7 6 6 14 15 15 16 16 16 12 11 12 11 10 9 9 9 8 8 8 7 7 8 9 11 16 15 11 11 11 12 13 15 16 16 19 20 21 19 19 18 16 16 16 18 16 16 16 16 16 14 14 15 14 13 11 10 11
7 7 7 7 7 6 6 5 10 15 15 15 16 14 10 10 10 10 10 9 10 10 9 10 9 9 7 8 9 12 16 19 17 12 11 11 12 13 14 15 17 20 22 23 22 23 23 22 22 22 22 21 21 18 16 14 13 12 12 11 10 10 10
6 7 7 6 6 6 5 5 8 13 14 15 16 14 10 9 8 8 7 8 8 9 10 11 12 11 10 10 10 15 17 19 18 14 13 13 13 13 13 14 16 17 18 23 23 23 23 23 24 23 23 23 23 22 20 14 12 12 12 11 11 10 10
6 6 6 6 6 7 5 4 6 11 14 15 15 12 10 9 7 6 6 6 7 8 8 9 11 13 12 12 13 17 19 20 19 17 15 15 14 14 14 15 17 17 17 18 19 20 21 21 22 23 23 23 23 23 22 18 14 14 13 12 11 11 11
6 6 5 5 5 5 5 4 3 5 13 14 14 14 9 8 7 6 5 6 6 6 7 8 9 10 15 18 17 18 20 21 21 19 18 17 16 15 15 17 18 18 17 17 17 17 18 19 20 21 22 23 23 22 22 21 17 16 14 13 13 13 12
5 5 5 4 4 4 4 4 3 4 11 13 13 14 13 8 7 5 5 5 6 6 6 7 8 9 12 16 18 19 20 21 22 21 20 20 18 18 18 19 17 18 20 19 18 18 18 18 18 19 19 20 21 22 22 22 21 18 17 15 14 13 13
4 3 3 3 3 3 3 3 4 2 8 12 13 13 14 9 8 7 5 5 5 6 7 8 9 10 13 16 18 20 21 22 22 22 20 21 23 23 23 21 19 19 19 19 18 18 17 17 17 17 18 18 18 19 21 22 22 20 18 18 17 15 14
3 2 1 1 1 2 2 2 1 5 2 7 11 13 14 14 11 13 8 6 5 6 7 8 10 11 15 17 19 20 21 22 22 22 21 23 22 23 22 22 20 19 19 19 18 18 17 17 17 17 17 17 18 18 20 20 22 23 20 19 19 19 19
1 0 -0 -1 -1 -1 -1 0 -0 3 5 4 9 11 13 14 15 14 9 8 6 6 7 9 10 11 16 18 19 21 21 21 21 20 23 22 21 21 21 20 20 20 19 19 19 18 18 17 17 17 17 17 18 18 20 20 20 22 23 21 20 20 20
-0 -1 -2 -2 -3 -3 -2 -2 -2 -2 1 5 6 11 12 13 14 15 13 9 8 9 8 12 14 15 16 19 20 20 20 21 22 22 21 21 20 20 19 18 18 18 18 19 19 18 18 18 18 18 18 19 19 20 21 21 21 21 22 23 23 22 21
-2 -2 -3 -3 -3 -3 -3 -3 -3 -3 -2 2 4 6 10 12 12 12 13 12 10 11 12 14 15 15 17 19 19 18 19 18 19 20 20 20 20 19 17 17 16 18 18 17 17 18 17 18 18 18 19 21 21 20 19 20 19 20 20 21 22 22 22
-2 -3 -3 -4 -4 -4 -4 -4 -3 -3 -2 -1 0 2 4 6 8 12 12 11 10 11 10 10 13 15 17 17 17 18 18 18 18 18 18 18 18 17 17 17 17 16 16 17 16 16 16 16 17 18 20 20 20 19 19 20 19 19 18 19 19 19 19
-2 -3 -4 -4 -4 -4 -4 -4 -3 -3 -2 -1 1 2 4 5 7 8 8 8 9 11 11 11 14 16 16 16 16 15 16 16 15 16 17 18 17 17 17 17 18 17 16 15 15 14 14 14 16 17 18 19 20 19 19 20 19 18 17 18 18 17 17
-2 -2 -2 -3 -4 -4 -4 -3 -3 -2 3 2 6 5 5 6 6 7 8 10 12 11 13 14 14 14 13 13 13 13 13 14 15 15 15 16 16 15 14 15 14 14 14 14 14 14 14 14 15 15 15 17 19 18 18 19 18 18 17 18 17 16 16
-0 -1 -2 -2 -2 -2 -3 -3 -1 4 8 9 10 11 10 10 11 12 12 14 15 14 11 11 10 11 10 10 10 10 11 11 12 13 13 13 14 12 12 12 12 12 13 13 13 13 12 12 12 11 13 14 16 18 18 19 19 17 18 17 16 15 15
10 8 4 -0 -2 -0 4 5 5 8 10 11 12 13 13 13 12 13 13 13 12 10 8 8 7 7 7 8 8 9 9 10 10 11 11 11 11 11 11 11 11 11 11 12 11 11 11 11 12 13 13 13 14 16 17 18 19 18 18 17 16 15 15
9 10 9 8 4 1 -1 3 6 8 12 14 14 13 13 13 13 13 12 12 12 9 8 8 7 7 7 7 8 8 9 10 10 10 11 10 10 10 9 9 9 10 8 8 8 8 9 10 10 11 12 12 13 14 15 17 19 19 17 17 16 16 16
8 9 10 10 11 11 8 6 6 8 11 13 14 13 12 13 12 12 12 12 10 8 7 7 8 8 9 9 9 9 9 9 9 9 8 8 8 7 7 4 1 2 4 7 8 8 8 8 9 10 11 11 12 12 12 13 15 18 18 17 16 16 16
8 9 9 9 9 10 10 11 10 10 11 13 13 13 12 13 12 14 14 12 9 9 8 9 9 8 7 7 7 7 6 5 4 3 3 2 2 1 -0 -2 -2 1 4 6 7 7 7 7 7 8 8 9 10 11 11 12 13 14 16 18 17 15 15
-0 5 10 8 6 8 10 10 10 10 10 11 10 10 13 13 7 5 5 4 4 4 4 5 5 5 5 5 5 4 4 4 2 1 0 -0 -1 -2 -2 -1 0 3 4 5 4 5 5 6 6 5 6 7 8 9 9 10 12 13 14 15 17 17 16
0 1 5 10 10 7 9 11 11 10 9 12 13 12 10 4 3 2 1 1 1 1 1 2 2 3 3 3 3 2 1 1 2 0 -2 -3 -3 -3 -3 -1 2 2 2 1 2 3 4 3 2 3 4 5 5 4 6 8 10 11 12 13 13 15 17

ECMWFFLT1_sfc_dewp_072.txt.gz
Dewpoint
-2 -3 -2 -3 -1 -2 -1 0 2 3 3 3 4 5 5 5 6 6 5 5 5 7 10 11 11 11 11 10 11 10 10 10 9 9 9 9 8 8 9 8 7 6 6 6 4 3 3 3 3 1 2 2 4 7 11 9 10 13 13 13 15 18 21
-1 -0 -2 -2 -2 -1 -0 1 2 3 3 4 4 4 5 5 7 6 6 6 6 7 9 10 11 10 11 12 11 11 10 10 10 9 9 9 9 9 9 8 8 7 6 5 5 4 4 3 2 1 3 1 1 2 7 8 9 9 10 11 14 18 19
1 1 1 1 1 0 1 2 3 4 6 6 6 6 5 5 6 7 7 7 7 7 9 10 11 11 11 11 11 11 11 11 10 10 10 9 9 9 9 8 8 7 6 5 5 5 4 3 2 1 1 1 1 4 3 4 9 8 10 12 13 14 16
1 2 2 3 2 3 2 2 3 5 6 7 7 7 8 7 7 8 10 9 10 9 10 10 10 11 11 12 11 11 10 11 11 11 11 9 9 9 8 7 7 7 6 5 5 5 4 4 2 2 2 1 2 2 3 4 9 12 12 13 13 11 12
4 3 4 3 4 3 3 4 4 5 6 7 7 7 9 11 11 11 11 10 10 12 10 10 10 11 12 12 11 11 11 11 10 11 11 11 11 10 9 8 8 7 6 5 6 5 4 4 3 3 2 3 2 3 4 8 9 9 11 14 15 15 14
6 6 5 4 4 5 5 5 5 5 6 7 7 7 9 11 11 11 11 11 10 10 11 11 11 11 12 12 11 11 11 12 11 11 10 10 10 10 9 8 7 7 6 6 6 6 5 4 4 4 3 3 3 3 3 6 8 9 11 11 11 12 14
8 7 7 6 6 7 7 7 7 7 7 7 8 10 11 11 11 11 11 11 11 11 11 11 11 11 12 12 12 12 11 12 11 11 10 10 9 9 9 9 8 7 7 6 6 5 6 5 5 4 4 4 3 3 3 2 5 6 10 11 12 13 15
10 9 8 8 7 8 9 10 10 10 10 10 10 11 11 11 11 11 11 11 11 10 11 11 11 11 12 12 13 12 12 12 11 10 10 10 9 9 8 8 8 7 8 7 5 6 5 6 6 5 5 5 4 4 4 4 3 5 6 9 11 12 13
12 11 11 10 10 10 10 10 10 10 10 10 11 11 11 11 11 11 11 10 10 10 10 10 11 11 12 13 14 15 15 14 14 11 10 10 10 9 9 8 9 9 8 6 5 6 6 7 6 6 5 5 4 4 4 5 4 5 7 9 11 11 12
14 13 11 10 11 11 10 10 10 12 15 15 11 11 11 11 11 11 10 10 9 9 10 9 10 10 12 13 14 15 15 15 16 15 12 10 10 9 9 9 8 9 9 8 7 7 7 6 6 6 6 5 5 5 5 5 4 3 5 6 8 11 12
14 13 12 11 11 11 10 10 11 15 17 18 18 13 11 11 11 10 10 9 9 8 9 9 9 9 11 12 13 14 15 15 16 17 17 16 15 13 10 9 8 8 9 8 7 7 7 7 6 7 7 6 6 5 4 4 5 6 5 5 5 5 11
13 13 12 12 12 11 11 11 14 17 18 18 18 17 12 11 10 10 10 9 9 8 8 8 9 9 9 10 11 12 13 14 15 16 17 17 16 16 16 15 10 8 8 8 8 7 7 6 6 6 7 6 5 7 7 7 7 5 4 4 5 7 6
12 13 12 12 11 11 11 11 15 18 18 18 19 19 16 11 10 9 9 9 9 8 8 8 8 9 9 9 11 11 12 12 13 15 16 16 16 16 17 17 17 16 10 8 8 7 7 8 7 6 7 8 7 8 6 7 5 5 6 5 7 8 9
12 12 12 12 11 11 11 11 14 17 18 18 18 18 16 13 10 9 8 8 8 7 7 7 7 8 8 9 10 10 11 11 12 12 13 14 15 15 16 17 18 18 16 14 9 7 7 8 8 8 8 10 11 8 6 5 6 8 10 8 8 11 11
8 10 11 12 12 11 10 10 16 17 17 18 18 17 16 14 11 9 8 7 7 7 7 7 7 7 7 9 10 10 11 11 12 11 11 12 14 15 16 16 16 16 16 15 13 10 9 8 10 10 10 10 12 11 10 10 10 12 14 15 15 14 12
11 12 12 12 11 11 10 10 17 17 17 17 18 17 13 13 10 9 7 7 7 7 7 7 7 7 7 8 10 12 15 14 11 11 10 9 10 13 15 16 17 19 19 18 16 15 13 12 11 16 12 14 14 12 12 12 14 14 13 12 8 7 8
10 11 11 11 10 10 9 9 14 16 16 17 17 15 12 13 10 8 7 6 7 7 7 8 8 7 7 7 7 10 14 16 15 10 9 8 8 10 12 13 16 19 21 21 21 21 20 19 19 19 19 19 19 18 14 12 12 12 13 11 9 9 8
9 10 11 10 9 9 9 8 11 16 16 16 17 15 12 12 12 10 8 7 8 8 8 9 10 10 8 7 7 12 14 15 14 11 9 8 8 8 9 11 14 15 17 22 22 22 22 22 21 21 21 21 21 21 20 13 12 11 12 11 11 10 9
7 9 9 9 9 11 9 8 10 15 15 16 16 13 12 12 11 10 10 9 9 9 9 9 11 11 10 9 10 14 15 16 15 13 10 9 8 8 9 10 13 15 15 16 18 19 20 20 21 21 21 21 21 22 22 16 13 11 11 9 8 8 7
9 8 8 8 9 8 9 8 7 9 15 15 16 15 12 12 10 8 7 8 8 8 9 9 10 10 13 16 15 15 16 16 18 15 12 11 9 8 8 11 12 14 15 15 15 16 18 19 20 21 21 22 22 21 22 19 16 15 13 11 10 10 9
7 6 7 8 8 7 8 7 6 7 13 14 15 15 14 11 10 8 7 6 7 6 6 7 7 8 10 13 16 16 17 17 18 18 15 12 10 10 12 14 12 13 15 15 15 15 16 17 18 18 19 20 21 21 22 22 19 17 16 14 12 11 11
5 4 6 7 7 6 6 7 7 5 10 13 14 15 15 11 9 9 7 6 5 6 6 7 7 8 9 11 14 17 18 18 18 19 17 14 18 18 19 15 15 15 15 16 16 16 16 16 17 17 18 19 19 20 21 20 20 18 17 16 15 14 13
3 4 4 4 5 4 4 5 6 8 6 10 13 14 14 14 12 15 9 6 5 5 6 7 8 9 10 12 15 16 18 19 19 19 18 20 21 20 20 18 17 17 17 18 17 17 16 17 17 17 17 18 18 18 18 20 21 20 19 18 17 17 15
2 3 3 2 2 3 3 3 3 6 8 6 10 13 14 14 14 15 10 7 5 5 6 7 8 9 12 14 15 17 18 18 18 17 20 21 21 20 20 19 19 18 17 18 18 17 17 17 17 17 17 17 18 17 17 19 21 21 20 19 18 17 18
1 1 1 1 0 0 1 2 2 1 4 7 7 11 13 14 14 13 12 9 7 7 7 9 12 12 14 15 16 17 18 17 18 19 19 19 20 20 19 20 19 19 18 18 18 18 18 17 17 17 17 17 16 18 18 19 20 22 22 21 20 18 18
-0 1 1 -0 -0 -0 0 1 1 1 1 3 5 6 10 12 12 11 11 11 10 10 9 11 12 13 12 13 13 14 16 17 18 19 19 20 20 20 20 20 19 19 18 18 18 18 18 18 18 18 17 16 16 17 18 19 19 20 21 21 20 19 19
-0 -0 -0 -1 -1 -1 -0 0 0 0 0 0 1 2 4 5 7 10 10 10 11 10 8 8 9 10 13 14 15 16 18 18 19 19 19 19 20 20 19 19 18 17 16 17 18 18 19 19 19 20 19 18 17 17 18 20 20 19 19 21 21 20 19
-0 -1 -1 -1 -1 -1 -1 -1 -1 -0 -0 0 0 0 1 2 4 6 7 8 10 11 10 9 11 11 12 14 16 16 17 18 19 19 19 19 19 19 19 19 19 19 15 15 18 19 19 18 18 19 19 19 19 19 19 21 20 19 19 20 20 18 18
1 1 1 0 -1 -1 -2 -2 -2 -1 3 2 4 2 2 3 3 4 6 9 11 11 12 12 11 10 11 12 14 15 15 16 16 17 18 18 18 17 16 16 17 16 15 14 15 14 15 14 13 13 15 19 19 19 20 20 19 19 18 19 19 18 17
2 3 2 1 1 1 -1 -2 -0 5 9 10 9 10 9 8 9 9 8 9 10 10 9 10 10 10 11 12 14 13 14 15 15 15 16 16 17 15 14 14 14 14 13 13 12 11 12 11 10 8 8 12 16 19 20 20 19 17 18 18 17 17 16
11 10 6 3 0 2 6 6 6 7 10 11 12 11 12 12 12 12 12 12 9 8 8 9 10 11 11 12 13 12 13 14 14 14 14 14 14 13 13 12 10 10 12 13 13 12 11 10 9 9 10 10 11 14 18 19 19 18 18 17 17 16 16
9 8 8 7 6 3 2 5 7 7 11 12 13 13 12 12 13 14 14 14 13 9 10 11 10 10 10 11 10 10 11 12 12 13 13 12 11 11 11 11 9 9 10 10 10 10 10 9 9 9 11 11 13 15 16 18 19 18 17 17 17 16 16
9 10 9 9 8 11 11 7 8 9 10 12 13 13 12 12 13 15 15 15 12 10 10 9 9 9 9 9 9 9 9 9 10 11 12 11 10 10 7 5 4 7 9 7 5 5 6 7 8 9 10 12 13 14 14 15 17 18 17 17 16 16 16
7 9 10 12 12 9 8 10 11 10 11 12 14 14 14 13 12 14 14 14 10 8 7 8 9 9 9 9 10 9 8 7 7 7 7 7 6 4 2 1 1 5 4 4 4 3 5 6 6 8 9 10 12 12 12 12 14 15 17 17 16 16 16
-3 3 7 7 10 9 9 8 8 9 11 13 12 13 15 14 7 6 5 6 6 6 7 7 7 7 7 7 7 6 5 4 4 4 4 3 2 2 2 2 3 3 2 2 1 1 2 4 5 5 7 8 9 10 10 11 11 11 13 14 17 17 16
-4 -1 4 7 7 9 12 10 10 10 13 15 15 13 10 3 3 2 2 2 3 3 3 4 5 5 5 5 4 4 4 4 3 2 2 2 1 1 1 2 3 3 2 1 1 1 2 2 -1 1 2 2 4 5 7 8 10 10 10 12 14 15 16

ECMWFFLT1_sfc_dewp_078.txt.gz
Dewpoint
-4 -4 -3 -3 -2 -1 -1 3 6 8 10 10 8 8 7 7 7 6 6 7 6 6 9 10 10 10 10 10 11 11 12 12 12 13 12 13 12 12 12 11 10 8 8 7 5 4 3 4 4 3 4 4 5 5 5 13 11 10 8 9 11 11 15
-3 -3 -3 -3 -2 -2 -2 1 4 6 9 11 11 10 8 7 7 6 6 7 6 7 8 9 9 10 10 11 12 12 12 12 13 13 12 13 13 12 12 11 10 9 8 7 6 5 5 5 4 4 4 4 4 3 6 5 4 4 7 7 7 8 9
-4 -3 -3 -2 -2 -1 -1 0 0 3 7 10 12 12 10 9 8 8 8 7 6 6 8 9 10 10 10 11 11 12 12 12 13 13 13 13 13 13 12 11 11 10 8 8 7 6 6 5 5 4 5 4 3 5 3 3 5 5 5 6 7 8 8
-5 -3 -4 -2 -2 -1 -1 -1 0 1 3 8 10 12 13 13 12 10 10 9 9 8 9 9 9 10 11 11 11 12 11 12 13 13 13 13 13 13 12 11 10 10 9 8 7 6 6 6 5 5 5 4 5 5 4 3 7 7 7 8 8 7 6
-5 -4 -3 -4 -3 -3 -3 -2 -2 -2 -2 -1 2 7 12 14 14 14 12 11 10 10 10 10 10 10 11 12 11 12 11 12 12 13 13 13 13 13 13 12 11 10 10 9 8 7 7 7 6 6 5 6 4 3 4 5 5 7 8 9 9 9 8
-4 -4 -5 -5 -5 -5 -5 -4 -3 -2 -2 -0 2 3 8 12 14 14 13 12 11 10 10 10 10 10 11 12 12 11 11 12 12 12 13 13 13 13 13 12 11 11 10 9 9 8 7 7 6 5 5 4 4 3 4 4 6 4 4 6 7 8 9
-5 -5 -5 -6 -6 -5 -4 -4 -3 -2 -1 0 2 3 6 9 12 11 14 13 12 11 11 11 11 11 11 12 12 12 12 12 12 13 12 13 13 13 13 12 12 11 10 9 9 9 7 7 8 6 6 5 5 4 4 4 3 3 4 3 5 7 8
-6 -6 -6 -6 -5 -5 -4 -3 -3 -3 -2 -1 2 4 5 7 12 13 13 13 13 12 12 11 11 11 12 12 13 13 13 13 12 13 12 13 13 13 13 12 12 11 10 10 9 8 8 7 7 7 6 6 4 4 4 5 4 4 5 6 4 5 6
-7 -7 -7 -8 -7 -7 -6 -6 -6 -5 -4 -0 3 5 7 8 11 12 11 12 13 12 12 12 11 11 12 13 14 14 15 15 15 13 12 13 14 13 13 12 12 11 10 9 9 8 9 8 7 7 6 6 5 5 5 6 5 4 4 6 6 7 7
-7 -7 -7 -8 -7 -7 -6 -5 -5 -1 9 11 6 7 9 9 9 11 12 13 12 12 11 11 11 11 13 14 15 16 16 16 16 17 14 13 13 13 13 12 11 10 10 10 9 8 8 8 7 7 6 6 5 5 6 5 5 4 5 3 3 7 7
-8 -8 -8 -8 -7 -7 -6 -5 -4 8 12 14 15 10 8 9 11 12 12 12 13 12 11 11 11 11 12 14 15 15 16 16 17 18 18 17 16 16 13 11 10 10 10 9 9 9 9 8 7 8 7 7 6 6 6 5 5 5 2 1 -0 0 6
-9 -9 -8 -8 -7 -7 -7 -7 3 11 13 14 15 14 8 9 10 11 11 13 13 13 12 12 11 11 12 13 14 15 15 16 17 17 17 18 18 18 19 17 12 10 10 10 9 9 9 9 8 8 8 7 7 6 6 5 5 4 3 2 1 3 1
-10 -10 -9 -8 -8 -8 -7 -6 6 11 13 14 15 15 13 8 10 11 11 12 12 13 13 12 11 11 12 12 15 15 14 14 15 17 17 17 17 18 19 19 19 17 12 11 10 9 9 9 9 8 8 8 7 8 5 4 3 3 4 5 4 5 5
-10 -10 -10 -9 -8 -8 -7 -6 5 11 14 13 10 14 13 8 10 10 11 12 13 12 13 13 12 11 11 12 13 14 14 14 14 14 15 15 15 16 17 17 19 19 18 15 11 10 9 11 11 9 10 9 11 7 5 5 4 3 2 3 6 8 8
-11 -11 -10 -9 -9 -8 -8 -7 9 12 8 10 13 15 14 9 10 11 12 13 14 14 14 13 12 12 11 12 12 12 14 13 13 12 12 13 13 14 14 15 15 16 17 17 15 12 11 12 12 11 11 9 10 9 9 8 6 6 7 9 9 6 3
-10 -11 -10 -9 -9 -8 -8 -6 9 6 5 12 13 14 7 7 8 8 10 11 12 13 14 13 12 11 11 11 11 13 17 16 12 12 11 11 11 11 12 12 15 17 18 18 17 16 13 13 12 15 10 10 9 9 8 7 8 8 9 10 8 8 1
-11 -10 -10 -9 -9 -8 -7 -6 3 9 11 11 13 12 5 6 7 8 10 11 13 13 13 13 12 11 11 11 11 13 17 18 16 10 10 9 9 9 10 10 12 16 18 20 21 21 20 19 19 19 19 18 18 12 10 5 5 8 9 8 7 8 6
-11 -10 -9 -9 -9 -8 -6 -5 2 8 11 12 13 11 6 7 8 9 10 11 12 13 13 13 14 13 11 11 11 16 17 17 15 11 9 8 8 7 7 8 10 10 12 17 19 19 19 20 21 20 19 19 19 19 16 8 7 6 8 7 8 7 3
-11 -11 -10 -9 -8 -5 -5 -5 0 8 10 11 11 8 6 7 8 8 9 11 11 12 12 12 14 14 12 11 12 17 17 17 15 12 10 9 8 6 6 7 8 9 9 10 11 11 15 18 19 19 17 17 18 18 19 11 10 10 9 7 8 10 7
-11 -11 -10 -8 -8 -7 -6 -5 -4 -1 10 10 11 13 6 7 7 8 9 10 10 10 10 11 11 13 16 17 16 17 17 17 16 12 11 11 9 7 6 8 8 9 9 9 10 10 12 16 18 19 18 17 17 17 17 16 13 13 11 10 10 10 8
-12 -11 -10 -9 -7 -6 -5 -4 -3 -1 9 10 11 12 11 6 7 8 9 9 10 9 9 9 10 11 14 16 16 17 16 17 16 15 12 10 9 9 10 11 8 9 10 9 9 10 10 11 13 15 17 17 16 16 16 18 17 16 14 13 12 11 10
-12 -11 -10 -9 -7 -6 -5 -3 -1 -2 6 9 10 11 12 7 7 9 9 9 8 8 8 8 9 9 12 15 17 16 17 16 15 15 13 11 15 15 14 11 9 9 9 9 8 8 9 9 10 12 13 17 17 16 17 17 18 18 17 16 15 13 11
-12 -11 -10 -9 -8 -6 -5 -3 -3 -0 -0 6 10 11 11 11 9 12 10 9 8 8 8 9 9 9 12 14 17 18 15 15 16 14 13 17 17 16 14 13 10 9 8 8 8 8 8 10 9 9 11 13 17 18 18 18 18 19 18 17 17 17 16
-11 -10 -9 -8 -8 -6 -5 -4 -3 0 2 2 9 11 11 11 11 11 9 10 9 8 9 8 8 9 14 16 16 15 15 15 14 13 15 15 15 14 14 13 11 9 8 8 8 7 7 9 9 9 9 11 13 16 18 18 19 19 19 18 18 18 17
-9 -9 -8 -8 -7 -7 -5 -4 -2 -1 1 4 5 10 11 10 10 9 9 7 9 10 9 10 14 14 15 15 15 15 14 13 13 15 15 14 14 14 13 13 11 9 8 8 7 7 7 9 9 9 9 11 13 14 16 14 14 18 19 19 19 18 18
-8 -8 -8 -7 -6 -5 -4 -2 -0 0 1 4 5 5 8 9 7 6 6 7 6 11 12 13 14 13 13 13 12 11 11 11 12 12 12 13 13 13 14 14 12 10 9 7 7 7 8 9 10 11 12 13 14 14 14 14 15 16 18 19 18 17 17
-8 -7 -7 -6 -4 -2 -1 1 2 2 1 1 1 1 2 2 2 4 5 3 3 6 11 11 11 12 12 12 12 11 12 12 12 11 11 11 12 13 14 14 13 11 10 9 8 9 9 10 11 13 15 14 14 14 14 15 16 16 17 18 18 16 16
-7 -6 -4 -2 -0 1 2 1 2 3 2 1 1 1 1 0 0 -0 -2 -0 2 3 9 11 12 12 11 10 10 10 9 9 9 10 11 12 12 13 14 16 16 14 12 12 11 11 11 13 14 14 15 15 15 15 16 17 17 17 17 18 18 16 15
-5 -2 1 2 2 2 1 2 3 5 9 5 7 3 1 0 0 -0 0 2 5 6 9 10 9 8 8 7 7 8 9 8 8 9 11 12 13 12 13 14 15 13 12 13 13 12 14 15 16 16 16 16 16 16 16 17 17 17 17 19 18 16 16
-4 0 2 2 2 3 3 4 8 12 12 10 10 11 10 9 9 8 3 4 6 7 8 8 7 7 7 7 7 7 9 9 10 10 11 11 13 14 13 14 15 15 13 14 15 15 15 16 17 16 16 16 16 16 16 17 18 17 18 18 17 16 17
6 7 4 2 2 4 6 8 11 13 12 10 11 11 10 9 11 13 12 9 6 5 6 7 6 6 6 7 8 8 8 9 10 11 11 11 12 14 14 14 15 15 16 15 15 16 16 17 17 16 16 15 15 16 16 17 18 18 18 18 18 17 17
1 4 -0 4 4 3 0 6 10 12 15 12 11 11 10 10 10 12 13 12 10 5 5 8 6 6 6 7 7 8 9 9 10 11 12 13 13 14 15 15 15 16 16 16 16 16 16 17 17 16 16 16 16 16 16 17 17 17 17 17 17 16 17
9 10 9 9 9 9 4 6 8 11 15 15 13 13 14 14 14 13 12 13 7 4 5 7 7 6 6 7 7 8 9 10 11 11 12 14 14 14 15 15 15 16 16 16 16 15 16 16 16 16 16 16 16 17 16 17 17 17 17 16 14 14 14
6 7 6 7 9 10 11 8 13 12 12 14 16 15 16 15 12 14 13 10 5 5 4 5 5 6 6 6 7 7 9 10 11 12 12 12 11 11 12 12 14 14 14 14 15 14 13 14 14 15 15 15 16 16 16 17 17 17 16 15 13 13 13
-12 -6 -3 -5 -1 3 5 9 10 11 12 13 13 13 12 10 1 1 2 4 5 5 4 5 5 6 6 6 6 6 8 8 9 9 8 8 8 9 10 11 11 11 10 10 11 11 11 11 12 12 12 13 12 12 13 13 14 15 15 15 14 14 13
-13 -10 -6 -4 -2 -2 2 4 7 8 10 12 12 11 5 -4 -3 -3 -2 -1 -0 1 2 3 3 4 4 5 5 5 5 5 5 5 6 7 7 7 7 8 8 8 8 8 8 8 8 9 9 9 8 9 9 9 9 9 11 11 12 14 15 15 14

ECMWFFLT1_sfc_dewp_084.txt.gz
Dewpoint
-10 -9 -10 -10 -10 -10 -10 -10 -10 -10 -10 -9 -9 -8 -9 -9 -8 -8 -8 -6 -6 -5 -3 -2 -1 1 3 5 9 12 13 14 13 12 12 12 11 11 12 12 11 9 8 8 8 7 7 7 7 8 11 12 13 11 14 20 14 13 14 13 13 12 17
-9 -9 -10 -10 -11 -10 -10 -9 -9 -10 -10 -9 -9 -10 -10 -10 -8 -8 -8 -7 -7 -6 -3 -3 -2 -2 -0 2 5 10 12 14 14 14 12 11 12 11 12 11 11 10 9 8 8 8 8 8 6 6 10 10 11 11 11 12 14 11 11 10 10 9 8
-9 -10 -10 -10 -10 -10 -10 -10 -10 -10 -10 -10 -10 -10 -10 -9 -8 -8 -7 -6 -5 -5 -4 -3 -2 -2 -1 -0 1 4 8 12 14 14 14 13 12 12 11 11 11 10 9 9 8 8 8 8 7 6 7 9 9 10 10 9 11 11 10 8 7 7 7
-10 -11 -11 -11 -11 -11 -11 -11 -10 -10 -10 -10 -10 -10 -9 -8 -7 -7 -7 -6 -5 -4 -3 -2 -1 -1 -0 0 -0 2 3 6 11 14 14 13 13 12 11 10 10 10 10 9 8 8 8 8 8 8 7 7 8 9 9 9 11 10 9 8 7 6 6
-11 -11 -11 -11 -11 -12 -12 -11 -11 -11 -11 -11 -11 -11 -10 -8 -8 -8 -7 -7 -7 -5 -6 -5 -5 -4 -2 -1 -0 -0 -0 0 4 11 14 13 13 12 11 11 10 10 11 10 9 8 8 9 9 9 8 8 7 7 8 9 9 9 9 9 9 8 7
-11 -11 -11 -12 -12 -12 -12 -12 -12 -12 -12 -12 -12 -12 -10 -9 -8 -9 -8 -8 -8 -7 -7 -7 -7 -6 -5 -4 -4 -3 -2 1 2 5 10 14 13 13 12 11 11 10 10 10 9 9 8 9 9 9 9 9 8 7 7 8 8 6 6 8 7 8 8
-11 -11 -12 -12 -12 -12 -12 -12 -12 -11 -12 -11 -11 -10 -10 -9 -9 -9 -9 -8 -8 -7 -6 -6 -5 -5 -4 -4 -3 -2 -2 -0 0 3 6 12 14 13 13 12 11 11 11 10 10 10 9 9 10 9 9 9 9 8 8 7 8 7 7 6 7 7 8
-11 -12 -12 -13 -13 -12 -12 -11 -11 -11 -10 -10 -10 -9 -10 -9 -9 -9 -8 -7 -7 -5 -4 -4 -3 -2 -2 -1 -0 -0 -0 0 1 2 3 7 13 14 13 12 12 12 11 10 10 9 9 9 9 10 10 10 9 8 8 8 7 7 7 7 8 7 8
-12 -12 -12 -13 -13 -12 -11 -11 -11 -11 -11 -11 -10 -8 -8 -7 -6 -5 -5 -4 -4 -3 -2 -2 -0 1 2 3 4 5 5 6 7 6 7 8 9 13 13 12 12 11 10 10 10 10 10 10 10 10 10 10 9 8 7 8 8 8 8 9 8 9 9
-11 -11 -12 -12 -12 -12 -12 -12 -12 -9 4 8 -0 -0 0 1 1 1 1 1 -0 -0 1 1 2 3 3 3 4 4 5 7 8 9 7 6 9 11 13 11 11 11 10 10 10 10 10 10 10 10 10 9 9 9 8 8 7 6 7 6 7 8 9
-13 -13 -13 -13 -13 -13 -13 -13 -12 4 8 10 13 6 2 2 1 1 1 -0 -0 -0 0 1 2 3 4 4 4 4 5 6 6 8 9 10 11 11 12 12 10 11 11 10 10 10 10 10 10 10 10 10 9 9 8 8 7 7 7 6 5 4 4
-13 -13 -13 -13 -14 -14 -13 -13 -3 8 9 11 12 4 -3 -2 -1 -2 -2 -1 -2 -1 -1 -1 -0 0 1 2 3 4 4 5 7 8 8 9 11 13 16 15 13 11 10 10 9 9 10 10 10 10 11 11 11 9 9 9 8 8 7 6 6 6 5
-14 -14 -14 -14 -14 -14 -14 -13 2 7 10 9 7 7 1 -3 -2 -1 -2 -1 -1 -1 -0 0 1 2 2 3 5 5 6 7 7 9 9 9 10 11 14 17 17 17 12 11 10 9 9 10 10 11 11 12 11 11 9 8 8 8 8 7 6 6 5
-15 -14 -15 -15 -15 -14 -14 -14 -0 7 10 2 7 7 7 -1 -1 -0 -1 -1 -1 -0 1 1 1 2 2 4 5 6 6 7 7 8 8 8 9 9 11 13 17 15 16 15 11 10 9 11 12 11 12 12 14 11 9 8 8 8 8 7 7 7 7
-16 -15 -15 -15 -15 -15 -15 -14 4 9 7 6 8 8 10 0 1 0 -1 -1 -1 -1 0 1 1 2 3 3 4 5 7 6 7 7 8 8 9 9 10 11 11 12 13 14 15 13 12 12 13 13 12 13 13 12 11 11 10 9 9 9 8 8 6
-15 -15 -16 -15 -15 -15 -15 -14 6 8 4 3 11 10 1 0 1 0 -0 -1 -1 -1 0 1 2 2 3 3 4 6 11 10 7 7 7 7 8 9 10 10 15 16 16 14 14 15 16 14 14 17 13 13 13 13 13 12 11 10 9 8 6 6 3
-16 -15 -15 -15 -15 -15 -15 -14 -2 8 8 1 11 9 1 1 1 1 0 -1 -1 -0 1 1 2 2 3 3 3 6 12 13 12 8 8 8 8 9 9 10 11 16 20 20 20 20 21 21 20 20 20 20 19 15 13 11 10 8 9 7 6 6 2
-16 -16 -15 -15 -15 -15 -15 -14 -3 8 10 8 5 6 0 2 1 0 0 0 0 0 1 1 4 4 3 4 4 12 13 14 10 8 9 10 9 8 8 9 10 11 13 18 19 20 20 21 21 20 21 21 21 20 18 11 9 8 8 7 7 5 4
-17 -17 -16 -15 -15 -12 -12 -12 -5 7 10 13 12 6 2 1 0 1 1 1 1 1 1 2 4 5 6 6 8 14 15 15 11 8 9 10 10 9 8 9 11 11 11 12 13 15 16 17 19 18 17 18 19 19 19 12 11 10 9 8 7 6 1
-17 -17 -17 -15 -15 -14 -13 -12 -11 -6 10 10 8 7 -0 2 3 3 3 3 2 1 1 2 2 4 8 13 12 14 15 13 13 9 10 11 10 9 9 11 12 12 12 11 12 12 12 13 14 17 17 17 18 18 18 14 13 11 9 8 7 7 6
-18 -18 -17 -15 -14 -13 -12 -11 -9 -6 10 12 10 7 10 3 4 5 4 4 3 2 2 2 2 2 5 10 13 15 16 15 16 14 12 11 10 11 11 13 11 12 14 10 10 11 11 12 13 12 14 16 17 17 18 16 13 12 11 9 8 7 7
-18 -18 -17 -15 -14 -12 -11 -9 -6 -6 5 11 8 7 13 6 5 7 7 5 4 3 3 2 2 3 5 8 14 15 16 17 17 17 13 13 18 18 18 14 11 10 11 10 10 9 9 9 10 10 12 13 15 16 17 16 13 13 12 11 10 8 7
-19 -18 -16 -15 -13 -12 -10 -8 -7 -3 -3 5 11 11 12 12 10 14 6 5 4 4 3 3 4 5 8 11 14 15 17 16 17 15 14 19 18 18 17 14 10 10 10 10 9 8 7 7 7 8 9 10 11 14 16 15 14 13 12 12 12 12 12
-18 -16 -16 -15 -14 -12 -10 -8 -7 -3 -0 1 9 11 10 13 15 11 7 7 6 5 5 4 4 6 12 13 15 16 16 15 15 15 17 18 17 14 15 13 10 9 9 9 8 7 6 5 6 8 8 9 11 13 16 16 15 14 13 13 12 13 13
-16 -15 -15 -14 -13 -12 -10 -8 -6 -4 -1 1 2 12 15 14 12 10 8 6 5 6 4 8 12 12 12 14 15 15 15 15 15 16 16 15 14 15 13 11 9 8 7 7 6 6 6 6 7 7 8 10 12 15 17 17 15 14 14 13 13 13 14
-15 -15 -14 -13 -12 -11 -9 -7 -6 -4 -3 -0 2 4 10 14 12 11 10 8 7 9 8 9 10 10 9 11 12 13 12 12 13 15 16 15 14 13 13 10 9 8 7 6 6 6 6 6 7 8 9 11 12 12 15 16 15 15 14 14 13 13 13
-15 -14 -13 -13 -11 -10 -9 -7 -5 -5 -3 -1 0 1 5 8 6 8 9 6 3 5 2 3 5 6 8 11 12 12 13 14 14 12 12 13 14 14 12 10 9 7 7 6 6 7 7 7 8 9 9 9 11 11 12 16 15 15 14 15 14 13 13
-15 -14 -13 -12 -10 -9 -9 -8 -7 -4 -2 -0 1 3 6 7 4 1 0 0 -1 -4 -1 1 6 8 10 10 10 10 10 10 10 10 11 11 12 13 12 12 12 11 8 7 7 7 8 8 8 8 8 9 9 10 11 14 15 14 15 15 15 14 12
-13 -11 -10 -9 -9 -8 -10 -10 -7 -4 2 -1 4 4 5 6 3 2 1 4 7 5 4 5 7 8 6 6 8 7 4 5 6 6 6 9 9 10 12 12 11 9 8 8 8 7 7 7 8 8 9 9 9 9 10 13 14 15 14 15 15 13 12
-15 -11 -9 -10 -10 -9 -9 -8 -6 1 4 9 3 8 6 5 11 12 6 9 8 9 6 7 6 6 6 5 4 4 4 4 3 4 4 6 11 9 9 11 11 10 9 9 8 8 8 8 8 8 9 9 8 9 10 12 13 13 15 14 14 13 12
-2 -0 -9 -10 -11 -8 -5 -3 -2 0 2 7 8 8 10 11 11 10 8 7 2 -1 0 4 4 4 4 4 3 4 3 5 6 6 5 5 6 7 10 11 11 11 11 10 9 9 8 9 8 8 10 9 8 8 9 10 12 12 14 14 14 13 13
-4 -4 -7 -10 -11 -10 -10 -6 -2 -0 3 4 8 5 10 11 11 10 9 3 1 -5 -5 -4 -3 -2 -1 2 3 5 5 4 4 5 6 5 5 6 9 10 10 12 12 10 10 9 9 9 9 9 11 10 9 9 9 9 10 11 12 13 14 13 13
-0 -1 -3 -5 -4 -7 -6 -10 -2 1 9 6 5 9 3 6 7 8 5 -2 -8 -9 -9 -8 -7 -6 -5 -4 -3 -1 2 5 5 5 6 7 8 8 8 10 11 12 12 12 11 10 10 10 11 11 10 11 9 9 9 9 9 10 11 12 12 13 13
-3 -3 -7 -1 2 2 -2 5 6 7 8 9 9 8 5 -1 -4 6 7 -4 -11 -11 -11 -10 -10 -9 -8 -7 -5 -4 -2 -1 2 6 8 9 9 10 10 10 12 12 12 13 13 12 11 11 11 12 11 12 11 13 11 10 10 10 11 11 12 12 13
-23 -17 -14 -16 -14 -10 -7 -5 -4 -2 1 2 2 1 0 -0 -15 -16 -15 -14 -12 -12 -12 -12 -11 -11 -10 -9 -8 -6 -5 -4 -3 -1 3 6 8 9 10 11 12 12 12 13 13 13 13 12 12 13 13 12 11 13 12 12 12 12 11 11 12 12 13
-24 -22 -17 -15 -15 -14 -9 -7 -6 -4 -1 5 6 3 -7 -17 -17 -17 -16 -15 -14 -13 -13 -12 -11 -11 -11 -11 -10 -9 -7 -5 -4 -3 -1 4 8 8 10 12 12 12 12 12 13 13 14 14 14 15 14 13 13 13 13 13 13 13 13 14 14 13 14

ECMWFFLT1_sfc_dewp_087.txt.gz
Dewpoint
-11 -11 -11 -11 -11 -12 -12 -12 -12 -12 -12 -11 -11 -11 -11 -12 -12 -12 -11 -11 -10 -10 -8 -6 -5 -5 -6 -5 -3 -4 -3 -4 -2 -1 -1 2 4 6 11 12 12 11 11 9 9 8 8 7 7 7 8 8 11 11 13 17 15 16 17 16 16 17 22
-11 -11 -11 -12 -12 -12 -13 -12 -13 -13 -11 -11 -11 -11 -12 -12 -11 -11 -11 -10 -10 -9 -6 -6 -5 -6 -4 -5 -3 -2 -2 -2 -2 -1 -1 -1 1 1 7 9 12 12 11 11 10 8 8 8 7 6 7 8 8 11 12 12 13 15 15 15 15 15 15
-11 -11 -11 -12 -12 -12 -12 -12 -12 -11 -11 -10 -11 -11 -11 -12 -12 -11 -11 -10 -10 -10 -9 -7 -6 -6 -5 -6 -6 -5 -4 -2 -1 -0 -0 0 1 1 1 5 9 11 11 11 10 9 8 8 8 7 7 7 8 9 11 12 14 15 16 15 14 13 13
-11 -11 -12 -12 -12 -11 -12 -12 -11 -11 -11 -11 -11 -11 -10 -11 -11 -11 -11 -9 -9 -8 -8 -8 -8 -8 -7 -7 -7 -7 -7 -6 -3 -2 -1 -1 -0 1 -0 -1 5 7 12 12 11 9 9 9 8 7 8 8 9 8 10 10 13 15 16 15 14 12 11
-11 -11 -12 -12 -12 -12 -13 -12 -12 -12 -12 -12 -12 -12 -12 -10 -10 -9 -9 -9 -9 -7 -8 -9 -8 -9 -8 -7 -7 -7 -7 -6 -6 -5 -5 -4 -3 -2 -1 -2 -3 4 10 12 12 10 9 9 8 8 8 8 8 8 10 12 13 13 14 15 15 13 11
-11 -11 -12 -12 -12 -13 -13 -12 -13 -13 -12 -13 -13 -12 -11 -10 -10 -10 -10 -9 -9 -9 -9 -9 -9 -9 -8 -7 -7 -7 -6 -5 -5 -4 -4 -4 -3 -3 -1 0 0 0 6 11 11 11 9 9 8 8 8 8 8 8 8 11 12 13 14 13 13 13 13
-12 -12 -12 -12 -13 -12 -12 -13 -13 -12 -13 -13 -12 -11 -10 -10 -10 -11 -10 -10 -10 -9 -8 -8 -7 -6 -6 -6 -5 -5 -5 -5 -4 -4 -4 -3 -3 -2 -1 -1 -0 2 2 7 11 11 9 9 10 8 8 8 9 8 8 8 9 10 11 11 11 11 11
-12 -13 -13 -13 -13 -13 -13 -12 -12 -13 -12 -11 -11 -11 -11 -11 -11 -10 -9 -9 -8 -8 -7 -6 -4 -3 -3 -3 -3 -3 -3 -3 -4 -4 -3 -3 -2 -1 -1 -1 -0 1 1 3 7 9 9 9 8 7 8 8 9 9 9 8 7 8 8 9 10 10 10
-12 -13 -13 -13 -13 -13 -12 -12 -13 -12 -12 -12 -11 -10 -9 -9 -8 -7 -7 -6 -5 -5 -5 -4 -2 -2 -2 -1 0 1 1 1 1 -1 -2 -1 0 0 0 -0 -0 0 -0 1 5 8 10 8 7 9 7 8 8 10 8 9 8 9 9 9 10 10 10
-12 -12 -13 -13 -13 -13 -13 -13 -13 -11 -0 6 -1 -1 -1 -1 -2 -2 -3 -3 -2 -2 -1 -1 -1 -0 2 3 4 4 4 5 5 6 4 3 3 3 2 1 1 1 2 2 1 6 9 10 8 9 7 7 9 8 9 9 9 9 8 9 10 10 11
-13 -13 -13 -14 -13 -14 -14 -14 -13 2 7 10 12 6 2 2 2 1 1 -0 -1 -1 -2 -2 -1 -1 1 1 2 1 3 4 4 5 6 6 6 5 4 3 2 1 2 1 2 4 8 9 9 10 8 9 8 9 8 9 9 8 10 8 8 6 10
-14 -14 -14 -14 -14 -14 -15 -14 -5 6 8 10 11 5 -4 -1 0 1 0 -0 -0 -1 -1 -1 -1 -1 -1 -1 -0 -0 0 1 3 4 5 6 6 8 12 11 5 2 2 2 1 1 5 9 9 10 11 10 11 9 10 11 11 11 10 10 8 7 7
-14 -15 -15 -14 -15 -15 -14 -14 0 5 8 8 5 1 3 -3 1 1 0 1 1 1 1 0 -0 -0 -0 -0 2 2 1 1 1 3 4 4 5 5 10 12 13 11 7 5 4 3 4 7 10 12 11 12 11 13 12 12 11 11 10 10 9 7 6
-15 -15 -15 -15 -15 -15 -15 -15 -2 5 8 4 3 6 3 -1 2 2 2 2 2 2 1 1 1 0 0 1 1 2 2 2 2 2 2 3 3 3 5 8 11 10 8 8 7 6 5 8 11 10 12 14 15 13 12 12 11 12 11 10 9 10 10
-16 -16 -15 -16 -16 -16 -16 -16 2 7 7 3 8 9 6 2 3 2 2 2 2 1 1 1 1 1 1 1 1 1 3 1 1 2 1 2 2 3 4 5 6 6 7 7 8 8 9 10 12 13 13 13 14 13 13 13 11 12 11 11 12 11 12
-16 -16 -16 -16 -16 -16 -16 -16 3 6 0 6 8 6 0 1 0 0 1 1 2 2 2 2 2 1 1 1 1 2 11 9 3 3 1 1 1 2 3 5 10 13 12 10 8 8 10 11 13 16 15 14 13 13 14 13 13 12 11 10 9 8 8
-17 -17 -17 -17 -16 -16 -16 -15 -5 6 4 5 9 6 -0 1 1 1 2 2 2 3 3 3 2 2 1 2 2 3 12 10 8 3 3 2 2 2 2 3 5 12 15 15 16 17 17 16 16 18 19 20 19 15 13 11 10 10 10 9 8 8 7
-17 -17 -17 -17 -17 -16 -16 -15 -5 6 -1 5 9 9 2 1 1 1 2 2 2 3 3 4 6 6 3 2 2 10 13 10 6 3 4 3 3 3 3 4 5 6 8 15 16 17 17 17 16 17 18 19 21 21 17 10 9 10 10 9 8 7 7
-18 -18 -17 -17 -16 -14 -14 -14 -7 5 4 2 7 3 1 2 1 1 1 2 2 4 4 5 6 7 6 5 7 13 11 9 9 3 4 5 4 3 3 4 7 7 8 8 9 10 12 13 16 15 15 16 18 19 19 14 12 11 10 9 8 8 7
-18 -19 -18 -17 -16 -16 -15 -14 -13 -8 7 2 4 9 -0 -0 0 1 2 3 3 4 5 6 6 6 9 14 13 12 10 10 10 6 7 7 5 4 5 7 7 8 8 9 9 10 11 12 14 15 16 16 16 17 17 16 13 13 11 9 9 8 7
-19 -19 -18 -17 -16 -15 -14 -13 -12 -9 8 8 8 10 5 -0 2 4 5 5 5 6 7 7 6 6 7 11 13 13 10 12 14 13 8 8 7 7 8 11 7 8 11 10 10 10 10 9 11 11 13 14 15 15 16 17 15 14 13 11 9 8 8
-20 -20 -19 -17 -16 -15 -13 -12 -10 -10 3 9 8 8 11 2 3 6 6 6 7 7 6 6 5 5 6 8 13 14 13 15 14 13 8 9 15 15 17 11 9 9 9 10 10 9 9 9 10 11 11 12 14 16 16 18 15 13 13 13 12 10 9
-20 -19 -19 -17 -17 -15 -13 -12 -11 -7 -7 1 9 10 11 11 9 12 6 6 8 8 7 6 6 6 8 9 13 14 15 15 15 13 11 14 15 15 15 13 10 10 9 10 10 9 9 9 10 10 11 13 15 16 17 17 16 14 13 13 13 14 13
-20 -19 -18 -17 -17 -16 -14 -12 -11 -8 -6 -6 5 10 9 12 13 13 7 7 8 9 7 6 5 6 12 11 12 14 14 14 12 10 16 16 16 14 14 13 11 10 10 10 10 10 9 9 10 10 11 12 13 13 15 16 15 13 14 14 13 15 14
-18 -17 -17 -17 -16 -15 -13 -12 -12 -11 -8 -5 -3 9 10 12 13 9 8 6 7 8 8 9 12 12 12 12 13 13 12 10 11 14 14 14 15 13 14 13 11 10 10 10 9 9 9 9 9 10 10 12 13 14 16 15 14 14 13 13 14 14 14
-17 -17 -17 -16 -15 -14 -14 -13 -13 -12 -11 -7 -4 -1 6 10 6 6 6 6 6 8 9 9 10 8 7 7 8 7 8 10 12 13 15 16 16 14 13 6 3 6 9 9 8 8 8 8 8 9 10 11 13 12 13 15 14 14 13 13 13 12 13
-17 -17 -17 -16 -14 -14 -14 -14 -13 -12 -11 -9 -6 -3 -1 0 1 4 4 2 3 6 4 4 6 7 10 11 12 12 13 13 12 11 11 12 12 12 9 5 8 9 8 8 8 7 7 7 8 9 9 10 10 10 12 14 14 13 13 13 12 11 11
-17 -16 -14 -14 -14 -14 -15 -15 -14 -13 -12 -9 -5 -3 -2 -0 0 0 -1 -1 0 2 2 2 6 5 5 7 8 8 7 7 8 8 9 11 12 9 7 9 11 11 9 8 8 7 7 8 8 8 8 8 9 9 11 14 14 13 13 13 12 11 10
-14 -12 -12 -11 -13 -14 -15 -15 -14 -13 -3 -5 -1 -1 -2 -0 -0 1 -2 -0 2 -1 -3 -4 -5 -4 -3 -1 1 3 4 6 6 6 8 10 11 9 7 10 9 8 7 7 7 7 7 7 7 7 8 8 8 9 10 13 14 14 13 13 12 10 9
-15 -14 -11 -11 -13 -13 -13 -14 -13 -4 1 -3 -4 -2 1 1 2 6 -0 -1 -1 -4 -8 -8 -9 -8 -8 -6 -5 -3 -1 1 3 5 6 7 11 11 10 10 9 8 7 8 7 7 7 7 7 7 7 7 7 7 9 12 15 14 14 13 12 10 10
2 -1 -8 -12 -13 -11 -8 -8 -8 -6 -7 -1 -3 3 1 2 7 4 3 -1 -6 -10 -11 -11 -11 -11 -11 -10 -9 -7 -6 -4 -1 2 4 6 7 9 10 11 10 9 9 8 8 8 8 8 7 7 7 7 7 7 8 9 13 13 13 12 12 10 10
-6 -2 -3 -10 -14 -10 -12 -9 -9 -7 -6 -1 2 2 4 8 6 8 5 -3 -5 -12 -13 -13 -13 -13 -13 -12 -12 -10 -9 -7 -6 -4 -1 3 6 7 8 9 10 11 10 9 8 8 8 8 7 7 7 7 7 7 7 9 11 12 13 11 11 10 10
-0 -1 -4 -5 -3 -2 -2 -14 -14 -13 -8 4 -1 7 -1 3 3 3 0 -6 -14 -15 -15 -14 -14 -14 -13 -13 -13 -13 -12 -10 -8 -7 -4 -1 4 7 7 8 10 13 11 10 9 9 8 8 8 8 8 8 8 7 6 8 10 11 12 12 11 10 11
-5 -6 -12 -7 -3 -9 -3 -0 -4 0 4 6 6 5 2 -5 -9 1 2 -8 -16 -16 -16 -16 -15 -14 -14 -14 -13 -13 -13 -12 -11 -9 -6 -4 -1 4 8 9 10 11 11 10 10 9 9 9 8 8 7 8 7 7 7 8 9 10 11 11 12 12 11
-26 -22 -19 -21 -18 -15 -13 -11 -9 -8 -5 -3 -2 -2 -3 -3 -18 -19 -18 -18 -17 -17 -17 -17 -16 -16 -15 -15 -15 -14 -14 -14 -13 -11 -9 -6 -3 1 6 9 9 9 10 11 11 10 10 9 9 9 9 8 8 7 7 7 8 9 10 10 11 12 12
-27 -27 -22 -20 -19 -18 -15 -13 -11 -10 -7 1 3 -0 -11 -20 -21 -20 -19 -19 -19 -18 -17 -17 -16 -16 -16 -15 -15 -15 -15 -15 -14 -13 -11 -7 -3 2 6 7 9 10 10 11 11 10 11 11 10 10 10 9 9 8 8 7 8 9 10 10 10 11 11